Wind_Speed
19 14 8 6 6 3 2 3 0 4 1 3 1 2 4 3 3 1 1 2 5 5 6 5 5 7 5 7 7 5 4 4 4 8 1 0 3 6 6 6 6 3 2 8
21 16 11 7 5 2 4 3 0 3 1 3 2 1 2 3 4 3 4 4 5 2 6 2 6 4 2 7 7 7 6 2 3 6 4 4 3 4 4 3 3 7 9 7
25 19 15 11 6 2 3 3 1 2 4 2 5 4 3 2 0 2 3 2 3 3 5 4 3 4 3 7 6 8 7 6 8 15 10 5 3 6 6 9 5 11 10 16
26 22 16 13 9 3 3 2 2 0 2 2 3 3 4 3 4 2 3 1 5 5 4 2 5 3 2 4 7 9 5 18 8 16 19 9 15 10 8 12 17 12 16 9
26 21 19 13 8 6 2 3 3 2 2 2 4 4 4 6 2 5 4 4 4 3 5 7 8 6 5 10 4 5 4 15 17 22 20 19 18 17 14 18 19 11 2 7
26 23 16 13 8 7 4 3 3 2 4 3 3 4 3 4 5 1 1 1 1 4 6 6 7 6 7 8 6 10 7 8 9 17 10 11 12 8 12 2 1 2 6 2
25 21 15 11 8 5 7 5 5 3 2 4 4 3 3 5 3 3 1 2 4 2 2 3 3 5 11 13 16 14 11 6 8 12 2 15 3 5 5 3 4 3 3 2
23 21 15 12 7 6 9 11 5 3 3 2 2 2 2 2 3 1 2 1 2 0 3 2 5 3 4 4 1 4 7 7 4 4 7 0 2 4 5 3 2 3 3 3
21 17 14 12 10 10 11 11 7 5 4 2 3 1 2 1 1 3 0 3 3 1 1 1 2 3 3 5 7 3 5 5 2 1 8 12 3 8 8 4 1 2 2 3
18 17 14 10 11 11 12 8 9 6 4 4 4 3 1 1 2 1 2 5 4 2 1 2 3 4 3 2 2 6 4 4 1 4 4 3 8 12 6 2 1 4 3 2
16 14 11 10 14 11 11 11 8 6 3 5 8 5 3 3 2 2 3 1 1 2 1 1 3 1 1 2 1 1 1 1 2 3 2 4 11 2 2 3 3 4 4 5
14 13 11 13 14 12 10 9 17 16 13 3 17 21 18 6 2 0 1 1 2 1 1 0 1 0 2 3 3 2 1 3 2 3 1 2 3 2 2 3 3 4 6 6
15 13 12 13 16 12 7 19 17 17 7 6 4 3 12 20 11 1 1 2 2 2 1 1 1 3 2 2 2 1 2 1 1 1 2 4 3 3 6 5 6 8 8 8
14 14 20 20 15 12 15 16 12 10 8 4 2 6 6 12 16 9 3 6 6 3 2 2 2 2 3 1 1 2 2 4 2 3 3 6 1 5 6 8 11 10 12 12
22 29 26 21 19 19 23 24 21 11 4 3 3 4 16 8 16 19 17 10 5 2 2 3 2 2 3 2 2 2 0 2 0 3 2 3 6 5 9 5 6 11 9 10
32 31 29 23 21 15 6 5 16 17 7 4 3 3 14 19 12 11 17 11 7 2 3 2 2 3 2 2 1 3 4 3 5 4 3 5 10 12 7 4 10 19 15 15
28 29 26 18 14 13 14 3 10 7 6 3 3 2 7 18 6 5 5 10 3 3 2 2 2 3 3 2 1 4 6 6 6 8 3 5 2 6 21 20 20 21 21 21
34 32 31 30 29 22 26 31 9 9 13 9 3 3 2 15 3 3 8 2 3 4 2 2 1 2 2 1 6 6 6 8 6 4 8 10 19 19 17 19 20 14 13 17
29 27 18 11 14 8 6 9 23 29 14 3 3 3 3 12 3 2 4 2 3 0 2 2 1 2 1 5 5 6 6 3 7 10 13 15 6 9 15 16 15 8 11 17
15 6 10 3 6 6 3 7 9 12 10 6 2 1 2 3 3 3 4 2 2 2 2 1 2 3 4 6 7 6 8 11 11 7 10 10 12 10 10 11 18 17 18 21
6 6 3 5 7 6 8 4 5 4 5 3 2 1 2 4 2 2 2 1 1 3 3 2 2 3 4 7 6 15 19 18 18 17 18 19 18 14 13 17 19 20 20 20
12 20 12 7 10 5 7 3 4 6 1 4 2 3 2 3 3 3 3 2 3 1 3 3 3 4 7 5 8 16 20 20 18 19 19 20 20 20 20 20 21 21 22 22
11 9 6 4 5 12 7 6 4 4 4 2 3 3 2 4 3 2 3 5 2 3 3 2 4 4 5 7 9 15 17 18 19 21 21 21 23 24 22 23 24 23 23 22
5 5 8 4 5 3 3 3 2 3 2 5 4 2 2 2 4 0 4 2 2 4 4 4 3 5 7 9 14 14 15 20 20 22 23 23 23 24 25 23 24 23 22 24
4 5 5 4 2 2 3 2 3 2 3 2 2 2 1 3 3 2 2 6 4 3 4 3 4 7 11 12 15 17 19 20 21 23 22 23 24 23 25 25 24 24 24 25
5 7 4 1 2 3 3 1 2 3 2 1 2 1 4 4 1 5 2 3 4 4 3 6 10 14 14 15 21 23 24 24 25 25 24 25 25 24 25 27 26 26 26 25
6 3 2 2 1 3 2 1 2 7 1 1 2 5 4 2 3 3 3 4 4 9 12 11 14 15 17 25 26 26 26 26 26 26 26 26 27 26 24 23 28 25 25 25
Wind_Direction
206 206 212 221 255 284 193 129 295 11 32 56 67 156 188 190 178 116 164 162 205 203 181 211 229 215 216 164 149 165 215 164 228 226 290 136 163 210 181 218 247 225 268 259
193 195 189 203 240 241 160 120 226 18 59 181 210 215 235 212 159 199 166 211 214 160 188 248 201 200 226 157 155 178 187 255 339 313 352 10 211 215 167 149 76 234 252 262
190 189 182 179 212 215 181 115 198 356 56 12 136 156 220 218 154 210 164 192 148 140 207 232 242 217 252 178 198 233 186 191 202 250 235 145 209 224 211 203 224 248 237 259
179 174 172 168 172 193 205 30 207 26 180 197 128 159 163 182 213 191 186 210 209 171 220 250 238 243 279 248 257 269 239 263 227 245 249 215 245 229 198 206 232 229 254 208
173 172 160 164 163 180 140 142 147 34 103 98 120 206 215 198 205 149 235 189 190 153 177 196 245 255 262 255 246 227 223 262 265 270 261 245 242 242 243 229 245 249 137 254
167 160 158 157 176 175 118 106 82 91 140 121 136 219 200 202 149 324 126 160 161 241 248 243 242 234 250 244 241 257 250 258 251 265 274 275 266 262 263 225 9 198 212 222
156 146 145 152 150 165 122 132 120 110 165 178 199 161 182 173 174 183 241 178 158 233 350 319 332 267 256 259 259 247 256 256 270 273 17 275 297 358 350 85 33 358 76 60
147 138 136 142 141 122 127 140 122 132 141 165 183 80 139 31 353 102 227 296 197 184 51 351 321 309 333 270 50 310 250 254 265 258 260 301 86 5 18 353 24 358 43 7
138 140 141 147 157 152 144 137 130 105 120 55 336 57 42 117 42 349 331 41 343 60 166 184 220 250 246 292 331 22 36 33 223 355 275 274 37 339 344 313 234 3 43 357
141 141 147 151 167 160 153 119 126 97 98 25 3 83 135 27 73 194 347 342 352 9 133 221 230 238 190 294 317 331 341 352 153 304 289 92 343 313 307 225 191 360 11 316
142 147 149 163 157 156 156 99 113 103 94 36 37 39 54 17 38 100 306 1 11 340 57 188 250 215 62 84 238 171 85 15 312 281 275 243 347 328 344 344 315 351 342 338
136 146 155 147 143 148 148 95 97 97 83 109 95 70 57 56 42 48 334 190 264 283 106 148 250 96 49 162 255 326 271 187 217 177 290 303 342 46 337 330 322 328 321 314
139 139 147 141 135 140 138 121 113 94 103 61 54 15 39 37 35 14 115 322 290 48 150 109 93 101 306 192 203 171 339 353 195 3 274 329 279 353 0 334 324 323 316 311
134 141 123 115 111 127 136 114 104 98 108 101 27 53 42 34 38 40 349 274 294 86 45 67 60 97 17 114 92 90 228 331 304 273 316 325 243 331 332 321 328 325 323 308
122 110 107 109 114 124 118 92 68 77 97 122 138 103 29 40 43 44 43 62 52 42 60 50 53 72 88 54 66 360 265 231 70 257 231 228 271 288 307 304 304 303 301 304
106 105 104 105 114 113 104 71 45 46 90 96 94 121 21 18 25 35 41 42 46 65 84 62 31 314 102 97 133 255 257 258 219 261 273 245 268 281 278 259 292 307 295 292
104 100 98 102 104 89 57 45 326 25 81 79 90 49 10 359 13 22 22 43 57 84 87 57 60 8 46 75 105 281 300 287 283 257 301 308 280 275 298 299 298 304 300 301
107 102 98 93 90 83 48 36 57 59 82 54 66 335 11 9 346 346 12 25 25 21 118 43 67 3 47 64 260 281 274 294 297 286 282 262 284 295 289 296 298 300 293 294
112 109 102 82 42 49 27 23 50 60 62 96 68 24 296 341 347 31 352 18 52 255 57 352 63 349 34 242 268 282 272 237 274 293 284 284 265 277 283 283 286 275 285 287
112 89 51 53 22 1 28 21 27 27 21 38 76 298 294 352 335 334 357 11 43 63 286 42 67 247 257 257 243 255 275 276 279 285 300 302 298 294 291 284 280 272 273 282
57 60 70 72 48 51 41 51 45 353 31 15 320 91 316 337 24 301 70 212 332 62 284 93 321 294 247 254 270 296 300 300 294 269 268 272 272 281 288 291 289 289 288 285
91 110 96 55 30 37 71 21 7 41 60 324 359 320 260 304 11 60 342 104 31 299 310 66 313 252 248 267 271 291 304 299 292 290 279 283 282 281 282 286 286 285 287 288
79 58 54 30 329 41 54 353 339 0 337 333 328 316 344 333 34 45 43 55 237 305 35 241 233 263 269 263 291 296 291 289 288 293 289 286 287 288 281 281 284 283 284 285
58 54 36 67 6 43 178 197 230 264 258 314 329 297 13 324 23 233 66 231 43 22 8 250 253 246 270 291 288 291 296 297 292 291 291 286 286 285 285 281 281 282 282 285
69 53 57 61 237 266 245 275 286 270 309 343 356 357 47 351 51 35 356 11 345 205 243 245 254 271 289 295 296 296 296 295 293 290 286 284 284 282 283 283 282 280 281 282
74 49 59 21 54 318 338 320 283 285 308 140 56 73 45 15 108 31 192 105 244 261 236 278 296 300 299 297 297 295 293 291 287 286 283 285 284 280 282 287 283 278 279 277
54 10 9 98 147 224 267 261 272 322 59 63 82 53 232 315 12 330 186 214 248 295 298 298 293 293 296 298 296 294 293 292 291 290 288 285 285 284 282 279 281 279 278 279
Height
836 840 842 843 846 844 845 846 849 847 846 855 868 870 866 860 860 862 862 866 868 871 875 877 884 879 875 874 883 894 904 920 907 888 911 920 913 898 900 892 906 917 912 878
831 835 837 841 844 843 842 848 850 847 846 850 861 862 860 859 861 861 864 867 868 870 875 883 878 874 869 874 878 892 896 918 916 889 907 912 911 914 912 916 915 898 882 876
825 829 831 836 842 843 843 847 847 851 851 858 856 860 860 859 860 860 862 864 868 873 877 877 878 875 868 872 873 867 875 898 889 873 886 899 902 906 906 883 880 872 880 863
815 824 829 831 834 840 842 846 848 851 854 856 860 861 860 861 861 863 864 866 868 875 879 878 878 873 872 870 869 869 874 866 883 866 862 880 862 875 894 879 866 867 854 887
816 820 823 829 832 836 840 845 849 854 860 859 862 861 864 861 861 866 867 873 867 883 889 882 878 876 876 875 870 876 876 864 856 850 850 853 853 857 863 867 854 867 901 886
812 814 823 825 832 834 837 843 845 844 857 863 865 864 859 861 861 862 863 866 872 872 871 871 871 872 871 870 872 867 867 859 856 846 845 845 845 858 853 878 890 879 874 885
811 814 820 829 831 832 834 838 842 850 850 855 854 856 859 860 862 871 864 866 873 870 870 869 870 870 865 865 863 863 862 869 855 849 872 857 885 882 874 876 892 894 889 894
812 815 822 829 834 832 834 838 842 848 855 851 855 858 863 867 867 870 868 866 869 870 873 878 875 872 871 861 865 863 859 857 854 856 852 862 880 894 892 887 894 900 897 897
813 818 821 826 832 834 835 839 841 844 854 866 868 866 869 874 878 871 867 868 869 870 871 872 889 878 879 884 874 873 872 880 864 871 853 852 902 895 894 893 878 897 899 900
815 819 823 828 833 835 836 839 841 845 862 874 872 876 879 876 878 880 874 877 873 871 876 877 884 887 890 880 892 902 894 913 899 890 864 892 902 899 894 888 903 897 898 900
816 821 826 829 833 835 836 841 843 845 867 879 877 879 881 881 882 882 883 880 878 877 887 880 888 876 889 901 920 921 918 926 928 903 894 888 904 897 895 906 900 899 899 898
816 822 827 831 834 835 836 842 845 848 860 882 883 884 884 884 885 886 884 885 883 879 884 886 880 887 898 911 904 923 913 931 927 926 916 913 910 910 908 906 904 901 899 897
819 824 829 832 833 836 837 842 848 854 869 882 884 887 888 886 884 885 889 887 884 884 884 887 890 901 903 905 914 923 923 924 921 918 918 913 911 909 908 906 904 900 898 896
822 825 827 831 834 838 840 844 850 853 863 880 893 889 890 891 887 885 885 884 884 884 886 891 897 902 906 919 921 921 930 925 928 919 916 912 910 909 908 905 903 900 897 895
822 825 830 834 837 841 843 849 853 854 859 879 890 891 893 891 890 887 886 884 885 888 894 900 909 909 915 921 926 945 935 934 931 926 921 920 914 909 907 904 902 898 896 891
827 832 836 840 843 845 846 853 859 859 860 872 893 895 895 892 892 892 891 890 891 895 903 912 916 914 916 925 933 931 931 928 925 921 918 916 910 907 904 902 898 895 892 888
833 837 840 843 845 846 857 870 868 864 864 874 892 897 900 899 897 896 896 896 898 901 912 918 920 919 918 933 937 929 927 924 920 917 917 914 909 905 901 898 894 891 887 883
838 842 846 849 851 855 863 869 867 867 869 883 916 917 908 907 904 907 901 905 905 909 919 920 923 922 923 940 936 932 926 921 915 914 912 909 904 900 895 893 889 886 881 877
843 846 849 852 857 868 877 877 874 873 883 913 928 937 936 914 910 910 906 907 915 914 926 929 921 931 940 933 928 925 922 921 916 910 907 902 900 895 891 887 884 882 876 872
847 849 853 871 878 879 879 879 883 893 906 917 940 933 937 926 918 919 920 923 930 945 933 926 938 953 939 930 923 919 916 912 910 907 899 896 892 889 885 882 878 874 870 866
849 859 874 881 880 881 890 908 917 926 940 937 939 938 938 928 934 932 938 945 943 955 940 939 956 956 937 921 919 913 909 906 902 900 895 892 888 883 879 874 870 867 863 859
857 862 877 883 893 902 918 947 940 947 955 944 944 939 937 933 930 938 942 949 946 949 940 951 957 937 922 918 912 906 903 899 895 892 888 884 880 876 872 868 863 860 856 853
863 871 893 906 926 938 958 976 967 964 950 948 946 946 941 936 934 951 950 952 963 945 962 952 939 926 916 911 906 900 896 893 889 885 881 877 873 868 865 860 856 852 849 845
884 908 932 948 966 964 972 966 960 953 949 945 945 950 948 943 948 959 959 956 958 967 968 946 933 918 908 903 899 895 889 886 882 878 873 869 865 860 856 852 848 845 841 837
912 925 963 967 960 959 959 956 953 949 947 948 950 951 949 954 959 954 953 954 965 956 942 932 916 908 902 896 891 887 882 878 874 869 865 860 856 852 846 842 839 836 833 829
924 946 962 959 962 962 959 958 955 949 948 948 949 961 964 970 974 960 979 971 960 935 931 914 905 899 894 889 885 880 875 871 865 860 856 851 847 843 838 834 830 827 824 820
948 964 957 960 962 963 959 956 951 948 949 958 960 962 971 970 971 958 960 951 928 915 909 905 900 894 887 882 877 872 867 862 857 852 847 842 838 834 830 825 819 817 814 811